Вернуться в каталог

STARLINK-33553

АктивенСвязьVLEO
NORAD 62108·PAYLOAD·🇺🇸 United States

Запущен Nov 25, 2024 с Cape Canaveral Space Force Station

Loading…

Ближайшие Пролёты (ближайшие 24 часа)

TLE

СвежийSource: CelesTrak SupGP

Эпоха: Sep 15, 2026, 03:04 UTC

1 62108C 24220W   26258.12826389 -.00004228  00000+0 -15309-3 0  2585
2 62108  43.0019 215.6825 0000966 260.5182  94.8824 15.27593397    17

Отслеживайте STARLINK-33553 в реальном времени с AllMySat

Download on the App Store